Airport Information

KYKM - Yakima Air Terminal McAllister Field Airport

KYKM 242018Z 00000KT 2SM -SN BR OVC032 M01/M03 A2979 RMK AO2 SFC VIS 2 1/2 P0000 T10111033 $


  • General Information

  • Coordinates: N 46°34'5"/ W 120°32'38"
  • Location: N/A
  • Surveyed Elevation: 1095 MSL

Operations

Flow Name Active Runways Conditions

Green background denotes normal operations.


Common Frequencies

Callsign Frequency Position Name

More at the Document Center


Charts


Flights